Notices

What's New in latest Release from April 7th, 2021:

- Updated Glossary, including Speed of Maximum Gust, and Total Hourly Precipitation

- Updated national and regional climate services offices contacts and prices information

- Addition of station inventory lists for 1981-2010, 1971-2000, and 1961-1990 Normals.

If you haven't already, please take our survey and provide feedback about our website: https://eccc.sondage-survey.ca/f/LanguageSelection.aspx?s=442ca660-fcf1-47c0-95a9-59707d6fd709

Hourly Data Report for July 27, 2016

TORONTO CITY
ONTARIO

43°40'00.000" N
79°24'00.000" W
112.50 m
6158355
71508
XTO

Download Data

Hourly Data (July 2016)
Hourly Data Report for July 27, 2016
TIME
LST
Temp Definition
°C
Dew Point Definition
°C
Rel Hum Definition
%
Precip. Amount Definition
mm

Wind Dir Definition
10's deg

Wind Spd Definition
km/h
Visibility Definition
km
Stn Press Definition
kPa
Hmdx Definition


Wind Chill Definition


Weather Definition


00:00 21.7 15.2 66 0.0 LegendMM LegendMM   100.12 26   LegendNANA
01:00 20.9 16.3 75 0.0 LegendMM LegendMM   100.09 26   LegendNANA
02:00 20.4 16.0 76 0.0 LegendMM LegendMM   100.12 25   LegendNANA
03:00 20.0 15.8 76 0.0 LegendMM LegendMM   100.09     LegendNANA
04:00 20.0 15.8 77 0.0 LegendMM LegendMM   100.07     LegendNANA
05:00 19.9 15.5 76 0.0 LegendMM LegendMM   100.08     LegendNANA
06:00 20.8 15.0 69 0.0 LegendMM LegendMM   100.10 25   LegendNANA
07:00 22.1 15.9 68 0.0 LegendMM LegendMM   100.11 27   LegendNANA
08:00 24.4 16.8 62 0.0 LegendMM LegendMM   100.09 30   LegendNANA
09:00 25.7 17.0 59 0.0 LegendMM LegendMM   100.09 31   LegendNANA
10:00 27.3 17.6 55 0.0 LegendMM LegendMM   100.08 33   LegendNANA
11:00 28.6 17.6 52 0.0 LegendMM LegendMM   100.04 34   LegendNANA
12:00 30.6 16.8 44 0.0 LegendMM LegendMM   99.97 36   LegendNANA
13:00 32.3 16.6 39 0.0 LegendMM LegendMM   99.92 37   LegendNANA
14:00 32.5 16.7 39 0.0 LegendMM LegendMM   99.89 38   LegendNANA
15:00 33.2 15.0 34 0.0 LegendMM LegendMM   99.81 37   LegendNANA
16:00 33.0 14.7 33 0.0 LegendMM LegendMM   99.79 37   LegendNANA
17:00 28.3 17.2 51 0.0 LegendMM LegendMM   99.86 34   LegendNANA
18:00 23.9 20.1 79 0.8 LegendMM LegendMM   99.86 32   LegendNANA
19:00 22.6 20.5 88 3.6 LegendMM LegendMM   99.94 31   LegendNANA
20:00 22.2 20.0 88 0.0 LegendMM LegendMM   99.96 30   LegendNANA
21:00 22.0 20.2 89 0.0 LegendMM LegendMM   99.93 30   LegendNANA
22:00 21.7 20.2 91 0.0 LegendMM LegendMM   99.96 29   LegendNANA
23:00 21.5 20.1 92 0.0 LegendMM LegendMM   99.97 29   LegendNANA

Notes on Data Quality.

Legend

  • E = Estimated
  • M = Missing
  • NA = Not Available*
  • [empty] = Indicates an unobserved value
Date modified: